Regional Weather Roundup
Issued by NWS Boston, MA

Home | Current Version | Previous Version | Text Only | Print | Product List | Glossary On
Versions: 1 2 3 4 5 6 7 8 9 10 11 12 13 14 15 16 17 18 19 20 21 22 23 24 25 26 27 28
000
ASUS41 KBOX 151510
RWRBOX

REGIONAL WEATHER ROUNDUP
NATIONAL WEATHER SERVICE TAUNTON MA
1000 AM EST FRI DEC 15 2017

NOTE:  "FAIR" INDICATES FEW OR NO CLOUDS BELOW 12,000 FEET WITH NO
SIGNIFICANT WEATHER AND/OR OBSTRUCTIONS TO VISIBILITY.

MAZALL-151600-
EASTERN MASSACHUSETTS

CITY           SKY/WX    TMP DP  RH WIND       PRES   REMARKS
BOSTON         CLOUDY    22   9  57 SW5       30.11R WCI  16
BEVERLY        PTSUNNY   21   9  59 W7        30.09R WCI  12
LAWRENCE       MOSUNNY   21   9  59 SW6       30.11R WCI  13
BEDFORD        CLOUDY    19   8  62 SW5       30.09R WCI  12
BLUE HILL        N/A     19   8  62 S6        30.06R WCI  11
NORWOOD        MOSUNNY   22  11  62 S3        30.12R
MARSHFIELD     CLOUDY    23  10  58 SW6       30.12R WCI  16
PLYMOUTH       MOSUNNY   22  10  60 W3        30.12R
TAUNTON        CLOUDY    21   9  59 W3        30.12R
NEW BEDFORD    MOSUNNY   22  11  62 W6        30.12R WCI  14
$$

MAZALL-151600-
CAPE COD AND THE ISLANDS

CITY           SKY/WX    TMP DP  RH WIND       PRES   REMARKS
FALMOUTH       MOSUNNY   23   9  54 CALM      30.13R
HYANNIS        MOSUNNY   23  10  57 CALM      30.11R
CHATHAM        MOSUNNY   26  15  63 CALM      30.13R
PROVINCETOWN   CLOUDY    26  17  68 VRB5      30.12R WCI  20
NANTUCKET      MOSUNNY   26  14  60 NW5       30.13R WCI  20
MARTHAS VNYRD  MOSUNNY   25  16  68 S5        30.14R WCI  19
$$

MAZALL-151600-
CENTRAL AND WESTERN MASSACHUSETTS

CITY           SKY/WX    TMP DP  RH WIND       PRES   REMARKS
WORCESTER      CLOUDY    18   7  62 W8        30.02R WCI   8
FITCHBURG      MOSUNNY   21  10  62 CALM      30.08R
ORANGE         NOT AVBL
SPRINGFIELD    CLOUDY    19  10  67 CALM      30.09R
WESTFIELD      CLOUDY    18  10  71 SW6       30.10R WCI  10
NORTH ADAMS    CLOUDY    14   7  73 E6        30.06R WCI   5
PITTSFIELD     CLOUDY    11   7  84 CALM      30.00S
$$

RIZALL-151600-
RHODE ISLAND

CITY           SKY/WX    TMP DP  RH WIND       PRES   REMARKS
PROVIDENCE     CLOUDY    20  10  65 SW5       30.14R WCI  13
NEWPORT        CLOUDY    23  13  65 S5        30.12R WCI  17
BLOCK ISLAND   MOSUNNY   31  18  58 N3        30.14R
SMITHFIELD     CLOUDY    18  10  71 CALM      30.09R
WESTERLY       MOSUNNY   23  10  57 VRB5      30.15R WCI  17
$$

CTZALL-151600-
CONNECTICUT

CITY           SKY/WX    TMP DP  RH WIND       PRES   REMARKS
BRADLEY INTL   CLOUDY    18   9  68 SW6       30.12R WCI  10
HARTFORD       MOSUNNY   19   9  65 VRB3      30.14R
BRIDGEPORT     PTSUNNY   25  10  53 CALM      30.13R
DANBURY        CLOUDY    19   9  65 CALM      30.10R
GROTON         MOSUNNY   24  10  55 VRB3      30.14R
NEW HAVEN      CLOUDY    24  10  55 N3        30.13R
CHESTER        PTSUNNY   21   7  53 CALM      30.10S
MERIDEN        CLOUDY    16  11  80 CALM      30.13R
WILLIMANTIC    CLOUDY    17   9  70 CALM      30.12R
OXFORD         PTSUNNY   20  11  68 CALM      30.08R
$$

MEZ002-015-021-024-NHZ003-005-008-011-012-014-VTZ005-008-151600-
NORTHERN NEW ENGLAND

CITY           SKY/WX    TMP DP  RH WIND       PRES   REMARKS
PORTLAND ME    MOSUNNY   15   3  59 CALM      30.06R
BANGOR ME      MOSUNNY   13   2  61 SW10      30.03R WCI   0
CONCORD NH     MOSUNNY   10   5  80 CALM      30.07R
MANCHESTER NH  PTSUNNY   18   8  65 S3        30.06R
NASHUA NH      MOSUNNY   25  17  72 CALM      30.08R
PORTSMOUTH NH  PTSUNNY   18   5  55 SW9       30.07R WCI   7
JAFFREY NH     CLOUDY    17   9  70 CALM      30.01S
KEENE NH       CLOUDY    13   8  81 CALM      30.08S
BURLINGTON VT  MOSUNNY   15   6  67 S9        30.02F WCI   3
MT. WASHINGTON MOSUNNY   -6 -13  71 W45G52      N/A  WCI -38
$$

NYZ052-076-151600-
EASTERN NEW YORK

CITY           SKY/WX    TMP DP  RH WIND       PRES   REMARKS
ALBANY         CLOUDY    16   7  67 S6        30.09R WCI   7
NEW YORK CITY  CLOUDY    26  10  50 W3        30.12S
$$

ANZALL-151600-
MARINE OBSERVATIONS

STATION/POSITION TIME  TEMP    WIND        PRES    VSBY  WAVE
                       AIR SEA DIR/SP/G                  HT/PER
                 (UTC) (F)     (DEG/KT/KT) (MB)    (MI)  (FT/S)
BOSTON BUOY      1450   25 47  240/  8/ 10 1019.1R         1/11
BUZZARDS BAY     1400   24     340/  1/  2 1020.6R
NANTUCKET SOUND  1450   25 42  300/  4/  8 1020.2R         1/ 9
MASS BAY-STELLWA 1404   24 47  300/ 10/ 16 1018.4R         1/ 3
ISLE OF SHOALS   1400   20     270/ 14/ 16 1018.1R
S OF BLOCK IS    1443      53                N/A           4/ 9
$$

......................KEY.........................
  SKY/WX - SKY CONDITION/PRESENT WEATHER
  TMP    - TEMPERATURE IN FAHRENHEIT
  DWPT   - DEWPOINT IN FAHRENHEIT
  RH     - RELATIVE HUMIDITY IN PERCENT
  WIND   - DIRECTION AND SPEED IN MPH
  PRES   - MEAN SEA LEVEL PRESSURE IN INCHES OF HG
  WCI    - WIND CHILL INDEX
  VSB    - VISIBILITY IN MILES
  HX     - HEAT INDEX
  TC     - TEMPERATURE IN CELSIUS
  VRB    - VARIABLE WIND DIRECTION
  N/A    - NOT AVAILABLE




USA.gov is the U.S. government's official web portal to all federal, state and local government web resources and services.